Torna al catalogo

COSMOS 1275 DEB

AttivoPO
NORAD 12692·DEBRIS·🇷🇺 Russia

Lanciato Jun 4, 1981 da Plesetsk Cosmodrome

Loading…

Prossimi Passaggi (prossime 24 ore)

TLE

AggiornatoSource: Space-Track

Epoca: Sep 14, 2026, 11:57 UTC

1 12692U 81053AL  26257.49807633  .00000963  00000-0  33063-3 0  9995
2 12692  82.8974 320.3690 0067855  94.4185 266.4760 14.33886486330812

Traccia COSMOS 1275 DEB in tempo reale con AllMySat

Download on the App Store